Location: Moonridge Observatory
(39.2268°N, 77.7914°W)
Time: 22:00:24
(UTC-04:00)

Amateur Radio Satellites - All Passes

Search period start: 27 June 2017 21:30
Search period end: 28 June 2017 21:30
Location: Moonridge Observatory, 39.2268°N, 77.7914°W

Satellite Date Start Highest point End Downlink Frequencies (MHz)
Time Altitude Azimuth
DELFI C3 27 Jun 21:37:11 21:40:50 38° 73° (ENE) 21:44:29 145.870
NO-84 27 Jun 21:41:29 21:45:17 75° 316° (NW) 21:49:27 435.350 FM
YUBILEINY 27 Jun 21:42:39 21:50:52 46° 88° (E) 21:59:07 435.215
BEESAT 2 27 Jun 21:44:38 21:48:36 80° 301° (WNW) 21:52:39 435.950
SO-50 27 Jun 21:45:51 21:48:21 14° 42° (NE) 21:50:51 436.795
EO-88 27 Jun 21:59:50 22:03:23 47° 74° (ENE) 22:06:55 145.990 - 145.960
RS-15 27 Jun 22:04:09 22:16:17 69° 306° (NW) 22:28:41 29.354- 29.394
AO-73 27 Jun 22:04:45 22:08:08 20° 267° (W) 22:11:33 145.935
AO-85 27 Jun 22:11:28 22:12:57 12° 317° (NW) 22:14:26 145.980
UNISAT 6 27 Jun 22:12:32 22:15:41 18° 92° (E) 22:18:47 437.425
PRISM 27 Jun 22:13:48 22:16:22 16° 94° (E) 22:18:55 437.425
BEESAT 3 27 Jun 22:19:41 22:22:02 15° 316° (NW) 22:24:22 437.485
Oscar 11 27 Jun 22:30:28 22:32:33 13° 269° (W) 22:34:38 .
PCSat 27 Jun 22:37:25 22:41:46 25° 253° (WSW) 22:46:06 145.827
O/OREOS (USA 219) 27 Jun 23:03:54 23:06:39 16° 304° (NW) 23:09:23 437.305
TIGRISAT 27 Jun 23:05:06 23:09:43 62° 101° (E) 23:14:11 435.000
FO-29 27 Jun 23:09:14 23:17:10 90° 120° (ESE) 23:24:51 435.910
DELFI C3 27 Jun 23:13:43 23:15:45 14° 268° (W) 23:17:48 145.870
M-CUBED/EXP-1 PRIME 27 Jun 23:14:15 23:18:03 69° 290° (WNW) 23:22:09 437.505
NO-84 27 Jun 23:20:51 23:23:33 17° 337° (NNW) 23:26:20 435.350 FM
SO-50 27 Jun 23:24:49 23:29:21 78° 239° (WSW) 23:33:54 436.795
VELOX 1 27 Jun 23:28:00 23:28:44 10° 62° (ENE) 23:29:28 145.980
SPROUT 27 Jun 23:29:07 23:30:26 11° 63° (ENE) 23:31:45 437.525
ESTCUBE 1 27 Jun 23:33:31 23:37:54 52° 73° (ENE) 23:42:15 437.505/2401.250
YUBILEINY 27 Jun 23:39:43 23:47:43 38° 287° (WNW) 23:55:48 435.215
LO-87 27 Jun 23:47:38 23:51:06 53° 260° (W) 23:54:37 145.935 - 145.965
PRISM 27 Jun 23:47:57 23:51:46 37° 288° (WNW) 23:55:34 437.425
UNISAT 6 27 Jun 23:48:12 23:52:34 41° 288° (WNW) 23:56:49 437.425
POLYITAN 1 28 Jun 00:06:29 00:09:20 17° 93° (E) 00:12:09 437.675
QB50P2 28 Jun 00:16:55 00:20:27 25° 95° (E) 00:23:58 145.880/145.840
RS-15 28 Jun 00:21:50 00:31:40 26° 334° (NNW) 00:41:32 29.354- 29.394
AIST 2D 28 Jun 00:38:24 00:41:54 76° 283° (WNW) 00:45:21 435.315
EO-79 28 Jun 00:40:04 00:44:09 41° 99° (E) 00:48:10 145.935-145.965
TIGRISAT 28 Jun 00:43:36 00:45:48 13° 297° (WNW) 00:48:00 435.000
50 SAT 28 Jun 00:46:46 00:49:43 29° 72° (ENE) 00:52:41 437.505
DUCHIFAT 1 28 Jun 00:50:54 00:54:59 44° 99° (E) 00:59:01 145.980
FO-29 28 Jun 00:55:52 01:01:07 20° 302° (WNW) 01:06:21 435.910
VELOX 1 28 Jun 01:00:11 01:04:32 74° 258° (WSW) 01:08:56 145.980
NANOSAT C BR1 28 Jun 01:00:46 01:05:01 67° 102° (ESE) 01:09:13 145.865
SPROUT 28 Jun 01:01:31 01:05:45 64° 259° (WSW) 01:10:02 437.525
DX 1 28 Jun 01:11:28 01:15:35 46° 72° (ENE) 01:19:44 434.975-435.025
ESTCUBE 1 28 Jun 01:12:44 01:14:58 14° 268° (W) 01:17:14 437.505/2401.250
UKube-1 28 Jun 01:23:15 01:27:17 41° 72° (ENE) 01:31:21 .
POLYITAN 1 28 Jun 01:41:17 01:45:14 37° 289° (WNW) 01:49:09 437.675
BUGSAT 1 28 Jun 01:50:16 01:54:30 62° 101° (E) 01:58:39 437.445
QB50P2 28 Jun 01:52:35 01:56:10 26° 291° (WNW) 01:59:42 145.880/145.840
Gurwin Techsat 1B 28 Jun 02:06:15 02:10:13 21° 94° (E) 02:14:09 435.225
ITUPSAT 1 28 Jun 02:07:57 02:10:14 13° 62° (ENE) 02:12:31 437.325
BEESAT 28 Jun 02:15:24 02:18:19 16° 63° (ENE) 02:21:14 436.000
EO-79 28 Jun 02:16:52 02:19:33 16° 294° (WNW) 02:22:13 145.935-145.965
50 SAT 28 Jun 02:20:56 02:22:34 13° 267° (W) 02:24:12 437.505
DUCHIFAT 1 28 Jun 02:27:45 02:30:14 15° 295° (WNW) 02:32:44 145.980
Oscar 19 28 Jun 02:30:10 02:35:14 57° 101° (E) 02:40:15 437.125/150
NANOSAT C BR1 28 Jun 02:39:05 02:40:08 11° 297° (WNW) 02:41:11 145.865
NO-84 28 Jun 02:39:28 02:41:55 15° 20° (NNE) 02:44:22 435.350 FM
RS-15 28 Jun 02:41:46 02:50:20 21° 10° (N) 02:58:43 29.354- 29.394
DX 1 28 Jun 02:49:39 02:52:00 14° 268° (W) 02:54:21 434.975-435.025
MOZHAYETS 4 28 Jun 02:58:39 03:02:30 26° 69° (ENE) 03:06:21
UKube-1 28 Jun 03:00:52 03:03:29 16° 267° (W) 03:06:06 .
ITAMSAT 1 28 Jun 03:16:49 03:17:52 11° 89° (E) 03:18:56 435.822/435.867
BUGSAT 1 28 Jun 03:27:52 03:29:16 11° 297° (WNW) 03:30:41 437.445
ITUPSAT 1 28 Jun 03:42:41 03:47:27 68° 258° (WSW) 03:52:16 437.325
Gurwin Techsat 1B 28 Jun 03:45:17 03:50:21 46° 289° (WNW) 03:55:24 435.225
CUBESAT XI-V 28 Jun 03:48:00 03:50:51 16° 65° (ENE) 03:53:43 437.345
BEESAT 28 Jun 03:50:57 03:55:37 54° 260° (W) 04:00:20 436.000
Oscar 19 28 Jun 04:10:48 04:14:03 17° 297° (WNW) 04:17:18 437.125/150
AO-7 28 Jun 04:12:41 04:20:36 44° 100° (E) 04:28:26 .
KKS-1 28 Jun 04:13:11 04:16:24 20° 66° (ENE) 04:19:38 437.445
NO-84 28 Jun 04:16:07 04:20:23 49° 39° (NE) 04:24:35 435.350 FM
MOZHAYETS 4 28 Jun 04:35:30 04:39:32 29° 264° (W) 04:43:34
STARS 28 Jun 04:35:58 04:38:24 15° 64° (ENE) 04:40:52 437.465
ITAMSAT 1 28 Jun 04:52:40 04:57:56 84° 285° (WNW) 05:03:09 435.822/435.867
RS-15 28 Jun 04:55:55 05:07:25 44° 43° (NE) 05:18:20 29.354- 29.394
BEESAT 3 28 Jun 04:58:14 05:01:35 25° 50° (NE) 05:04:52 437.485
AO-85 28 Jun 04:59:37 05:03:35 44° 55° (NE) 05:07:46 145.980
CUBESAT XI-V 28 Jun 05:23:20 05:27:48 49° 261° (W) 05:32:18 437.345
KKS-1 28 Jun 05:48:37 05:52:41 36° 262° (W) 05:56:48 437.445
NO-84 28 Jun 05:54:17 05:57:44 23° 236° (SW) 06:01:05 435.350 FM
BEESAT 2 28 Jun 06:03:17 06:07:09 41° 54° (NE) 06:10:58 435.950
AO-7 28 Jun 06:05:33 06:13:15 42° 298° (WNW) 06:20:55 .
STARS 28 Jun 06:10:03 06:14:18 50° 260° (W) 06:18:35 437.465
CUTE-I 28 Jun 06:17:56 06:20:53 15° 91° (E) 06:23:49 437.470
XW-2C 28 Jun 06:20:54 06:22:48 13° 92° (E) 06:24:41 145.795 - 145.815
KAITUO 1B 28 Jun 06:28:13 06:29:46 12° 92° (E) 06:31:18 145.475/437.950
ITAMSAT 1 28 Jun 06:35:29 06:36:32 11° 302° (WNW) 06:37:35 435.822/435.867
BEESAT 3 28 Jun 06:35:40 06:39:07 28° 247° (WSW) 06:42:30 437.485
DOVE 4 28 Jun 06:38:38 06:43:37 63° 101° (E) 06:48:47 437.250
AO-85 28 Jun 06:40:55 06:43:41 17° 249° (WSW) 06:46:34 145.980
Tancredo 1 28 Jun 06:50:43 06:53:19 27° 134° (SE) 06:55:57 437.200
NUDT-PHONESAT 28 Jun 06:58:18 07:01:33 29° 97° (E) 07:04:46 437.300
STRAND 1 28 Jun 07:05:56 07:10:31 34° 69° (ENE) 07:15:09 437.568
HO-68 28 Jun 07:08:34 07:12:30 15° 90° (E) 07:16:24 435.675
RS-15 28 Jun 07:08:40 07:20:27 62° 247° (WSW) 07:31:37 29.354- 29.394
XW-2F 28 Jun 07:22:36 07:26:21 82° 103° (ESE) 07:30:04 145.980 - 146.000
XW-2D 28 Jun 07:28:40 07:32:26 75° 283° (WNW) 07:36:10 145.860 - 145.880
O/OREOS (USA 219) 28 Jun 07:33:26 07:37:56 85° 68° (ENE) 07:42:24 437.305
XW-2B 28 Jun 07:37:48 07:41:31 59° 285° (WNW) 07:45:12 145.730 - 145.750
LilacSat-2 28 Jun 07:40:39 07:44:19 50° 286° (WNW) 07:47:57 437.200
BEESAT 2 28 Jun 07:41:59 07:44:34 16° 250° (WSW) 07:47:07 435.950
ISS 28 Jun 07:43:45 07:46:54 48° 137° (SE) 07:50:05 437.550
XW-2C 28 Jun 07:53:40 07:57:08 36° 287° (WNW) 08:00:34 145.795 - 145.815
YUBILEINY 28 Jun 07:54:51 08:01:10 21° 65° (ENE) 08:07:25 435.215
CUTE-I 28 Jun 07:56:01 08:01:21 66° 287° (WNW) 08:06:40 437.470
CUTE 1.7 + AOD 2 28 Jun 07:56:23 08:00:03 29° 96° (E) 08:03:41 437.475
KAITUO 1B 28 Jun 08:00:29 08:03:56 38° 287° (WNW) 08:07:21 145.475/437.950
AAUSAT CUBESAT 2 28 Jun 08:16:46 08:18:49 13° 92° (E) 08:20:53 437.432
DOVE 4 28 Jun 08:17:52 08:20:48 16° 295° (WNW) 08:23:48 437.250
Tancredo 1 28 Jun 08:26:11 08:28:51 28° 330° (NNW) 08:31:32 437.200
NUDT-PHONESAT 28 Jun 08:32:50 08:35:12 16° 292° (WNW) 08:37:33 437.300
XW-2A 28 Jun 08:35:28 08:38:51 61° 100° (E) 08:42:10 145.665 - 145.685
CUBEBUG 2 28 Jun 08:37:39 08:42:09 44° 98° (E) 08:46:29 437.445
STRAND 1 28 Jun 08:45:22 08:49:42 27° 265° (W) 08:54:03 437.568
HO-68 28 Jun 08:53:48 09:01:01 87° 289° (WNW) 09:08:11 435.675
ZACube-1 28 Jun 08:54:01 08:57:23 21° 93° (E) 09:00:39 437.345
PRISM 28 Jun 09:04:08 09:04:48 10° 63° (ENE) 09:05:28 437.425
UWE-3 28 Jun 09:05:05 09:09:33 52° 99° (E) 09:13:51 435.000/436.395/437.385
SEEDS 28 Jun 09:08:30 09:12:37 62° 285° (WNW) 09:16:43 437.485
UNISAT 6 28 Jun 09:10:46 09:13:25 15° 64° (ENE) 09:16:06 437.425
FO-29 28 Jun 09:20:23 09:25:58 36° 65° (ENE) 09:32:12 435.910
ISS 28 Jun 09:20:53 09:23:33 22° 335° (NNW) 09:26:14 437.550
RS-15 28 Jun 09:28:00 09:30:06 11° 268° (W) 09:32:11 29.354- 29.394
CUTE 1.7 + AOD 2 28 Jun 09:32:29 09:35:43 22° 291° (WNW) 09:38:56 437.475
YUBILEINY 28 Jun 09:50:08 09:58:59 80° 266° (W) 10:07:45 435.215
AAUSAT CUBESAT 2 28 Jun 09:50:34 09:54:29 44° 287° (WNW) 09:58:23 437.432
AO-73 28 Jun 09:52:28 09:56:53 87° 99° (E) 10:01:10 145.935
M-CUBED/EXP-1 PRIME 28 Jun 09:59:52 10:03:06 61° 254° (WSW) 10:06:20 437.505
TIGRISAT 28 Jun 10:02:09 10:06:33 47° 72° (ENE) 10:11:04 435.000
CUBEBUG 2 28 Jun 10:15:13 10:18:21 18° 295° (WNW) 10:21:26 437.445
Oscar 11 28 Jun 10:15:59 10:20:15 66° 285° (WNW) 10:24:30 .
ZACube-1 28 Jun 10:29:45 10:33:42 32° 290° (WNW) 10:37:32 437.345
PRISM 28 Jun 10:35:31 10:39:31 63° 259° (WSW) 10:43:33 437.425
UWE-3 28 Jun 10:42:56 10:45:29 15° 296° (WNW) 10:48:01 435.000/436.395/437.385
HO-68 28 Jun 10:43:30 10:47:43 17° 305° (NW) 10:51:56 435.675
UNISAT 6 28 Jun 10:45:05 10:49:36 55° 260° (W) 10:54:13 437.425
DELFI C3 28 Jun 10:49:19 10:53:16 77° 103° (ESE) 10:57:13 145.870
POLYITAN 1 28 Jun 10:59:10 11:00:55 12° 64° (ENE) 11:02:40 437.675
ISS 28 Jun 11:00:45 11:00:59 10° 354° (N) 11:01:13 437.550
EO-88 28 Jun 11:02:56 11:06:35 75° 102° (ESE) 11:10:12 145.990 - 145.960
FO-29 28 Jun 11:05:18 11:10:55 38° 265° (W) 11:17:16 435.910
QB50P2 28 Jun 11:09:01 11:11:49 17° 66° (ENE) 11:14:38 145.880/145.840
AIST 2D 28 Jun 11:11:37 11:14:44 29° 72° (ENE) 11:17:52 435.315
LO-87 28 Jun 11:17:06 11:18:40 12° 92° (E) 11:20:13 145.935 - 145.965
ESTCUBE 1 28 Jun 11:29:06 11:30:43 12° 91° (E) 11:32:19 437.505/2401.250
EO-79 28 Jun 11:31:27 11:35:02 27° 69° (ENE) 11:38:40 145.935-145.965
PCSat 28 Jun 11:33:50 11:39:01 49° 112° (ESE) 11:44:14 145.827
TIGRISAT 28 Jun 11:40:34 11:43:28 16° 268° (W) 11:46:25 435.000
DUCHIFAT 1 28 Jun 11:41:35 11:45:13 28° 70° (ENE) 11:48:52 145.980
YUBILEINY 28 Jun 11:50:12 11:54:15 14° 285° (WNW) 11:58:18 435.215
NANOSAT C BR1 28 Jun 11:51:27 11:55:26 41° 72° (ENE) 11:59:27 145.865
POLYITAN 1 28 Jun 12:31:58 12:36:10 59° 259° (W) 12:40:26 437.675
ISS 28 Jun 12:37:04 12:38:40 13° 15° (NNE) 12:40:16 437.550
BUGSAT 1 28 Jun 12:38:40 12:42:28 36° 71° (ENE) 12:46:20 437.445
QB50P2 28 Jun 12:43:17 12:47:16 39° 262° (W) 12:51:18 145.880/145.840
AIST 2D 28 Jun 12:45:58 12:47:59 14° 267° (W) 12:50:01 435.315
SPROUT 28 Jun 12:48:43 12:52:08 22° 95° (E) 12:55:31 437.525
LO-87 28 Jun 12:48:51 12:52:14 37° 287° (WNW) 12:55:36 145.935 - 145.965
VELOX 1 28 Jun 12:51:43 12:55:11 22° 95° (E) 12:58:38 145.980
ESTCUBE 1 28 Jun 13:03:27 13:07:52 60° 286° (WNW) 13:12:16 437.505/2401.250
EO-79 28 Jun 13:07:18 13:10:44 24° 265° (W) 13:14:12 145.935-145.965
Tancredo 1 28 Jun 13:15:39 13:18:20 27° 29° (NNE) 13:21:01 437.200
DUCHIFAT 1 28 Jun 13:17:30 13:20:51 22° 265° (W) 13:24:13 145.980
PCSat 28 Jun 13:18:14 13:22:38 25° 310° (NW) 13:27:05 145.827
AO-7 28 Jun 13:24:47 13:27:22 12° 45° (NE) 13:29:58 .
Gurwin Techsat 1B 28 Jun 13:26:06 13:30:41 31° 67° (ENE) 13:35:18 435.225
NANOSAT C BR1 28 Jun 13:28:46 13:31:19 15° 268° (W) 13:33:52 145.865
JUGNU 28 Jun 13:34:03 13:35:24 11° 177° (S) 13:36:46 437.505
SO-50 28 Jun 13:37:55 13:42:12 42° 116° (ESE) 13:46:30 436.795
50 SAT 28 Jun 13:42:21 13:45:30 34° 99° (E) 13:48:38 437.505
Oscar 19 28 Jun 13:45:48 13:50:56 75° 75° (ENE) 13:56:05 437.125/150
ISS 28 Jun 14:12:36 14:15:48 46° 33° (NNE) 14:18:59 437.550
BUGSAT 1 28 Jun 14:15:12 14:17:57 17° 267° (W) 14:20:43 437.445
SPROUT 28 Jun 14:24:17 14:28:00 29° 290° (WNW) 14:31:42 437.525
VELOX 1 28 Jun 14:27:42 14:31:38 32° 290° (WNW) 14:35:34 145.980
ITAMSAT 1 28 Jun 14:32:32 14:35:47 17° 62° (ENE) 14:39:02 435.822/435.867
DX 1 28 Jun 14:36:17 14:40:41 79° 284° (WNW) 14:45:03 434.975-435.025
UKube-1 28 Jun 14:46:42 14:51:02 90° 58° (ENE) 14:55:21 .
Tancredo 1 28 Jun 14:51:13 14:53:52 28° 226° (SW) 14:56:31 437.200
Gurwin Techsat 1B 28 Jun 15:05:51 15:10:32 32° 263° (W) 15:15:17 435.225
AO-7 28 Jun 15:10:15 15:18:16 55° 65° (ENE) 15:26:20 .
50 SAT 28 Jun 15:16:31 15:17:57 12° 293° (WNW) 15:19:22 437.505
SO-50 28 Jun 15:19:13 15:22:49 22° 313° (NW) 15:26:25 436.795
Oscar 19 28 Jun 15:28:58 15:30:46 12° 270° (W) 15:32:34 437.125/150
ITUPSAT 1 28 Jun 15:44:27 15:48:46 33° 97° (E) 15:53:02 437.325
ISS 28 Jun 15:49:44 15:52:02 18° 229° (SW) 15:54:19 437.550
BEESAT 28 Jun 15:52:03 15:56:32 40° 98° (E) 16:01:00 436.000
ITAMSAT 1 28 Jun 16:09:35 16:14:43 61° 259° (WSW) 16:19:54 435.822/435.867
MOZHAYETS 4 28 Jun 16:30:43 16:35:18 70° 101° (ESE) 16:39:50
AO-7 28 Jun 17:04:03 17:11:16 32° 263° (W) 17:18:35 .
SRMSAT 28 Jun 17:13:22 17:14:48 11° 183° (S) 17:16:14 437.500
CUBESAT XI-V 28 Jun 17:20:41 17:25:04 42° 99° (E) 17:29:26 437.345
ITUPSAT 1 28 Jun 17:22:31 17:26:25 25° 293° (WNW) 17:30:17 437.325
BEESAT 28 Jun 17:30:29 17:34:01 21° 295° (WNW) 17:37:32 436.000
NUDT-PHONESAT 28 Jun 17:37:56 17:39:36 13° 66° (ENE) 17:41:16 437.300
CUTE-I 28 Jun 17:38:17 17:42:23 23° 65° (ENE) 17:46:30 437.470
HO-68 28 Jun 17:39:11 17:41:24 12° 51° (NE) 17:43:38 435.675
KKS-1 28 Jun 17:40:04 17:44:23 44° 100° (E) 17:48:39 437.445
DOVE 4 28 Jun 17:43:29 17:47:31 49° 73° (ENE) 17:51:42 437.250
STARS 28 Jun 18:00:27 18:04:22 30° 97° (E) 18:08:15 437.465
XW-2F 28 Jun 18:02:17 18:05:42 31° 72° (ENE) 18:09:06 145.980 - 146.000
XW-2D 28 Jun 18:08:30 18:12:07 41° 73° (ENE) 18:15:44 145.860 - 145.880
MOZHAYETS 4 28 Jun 18:10:13 18:11:50 12° 298° (WNW) 18:13:26
XW-2B 28 Jun 18:17:28 18:21:11 51° 75° (ENE) 18:24:55 145.730 - 145.750
LilacSat-2 28 Jun 18:20:48 18:24:37 62° 75° (ENE) 18:28:26 437.200
XW-2C 28 Jun 18:33:00 18:36:51 85° 77° (ENE) 18:40:42 145.795 - 145.815
KAITUO 1B 28 Jun 18:38:36 18:42:23 76° 76° (ENE) 18:46:09 145.475/437.950
CUTE 1.7 + AOD 2 28 Jun 18:48:29 18:51:28 19° 67° (ENE) 18:54:26 437.475
CUBESAT XI-V 28 Jun 18:58:58 19:02:05 18° 294° (WNW) 19:05:13 437.345
XW-2A 28 Jun 19:06:23 19:08:42 17° 69° (ENE) 19:11:02 145.665 - 145.685
NUDT-PHONESAT 28 Jun 19:09:32 19:13:06 41° 261° (W) 19:16:41 437.300
AO-85 28 Jun 19:14:39 19:17:15 16° 111° (ESE) 19:19:48 145.980
CUTE-I 28 Jun 19:17:03 19:22:07 44° 261° (W) 19:27:13 437.470
KKS-1 28 Jun 19:17:38 19:20:34 17° 295° (WNW) 19:23:29 437.445
STRAND 1 28 Jun 19:19:24 19:21:21 12° 90° (E) 19:23:17 437.568
RS-15 28 Jun 19:20:00 19:29:07 26° 101° (E) 19:38:21 29.354- 29.394
HO-68 28 Jun 19:20:39 19:27:43 63° 70° (ENE) 19:34:48 435.675
DOVE 4 28 Jun 19:23:52 19:25:34 12° 270° (W) 19:27:18 437.250
CUBEBUG 2 28 Jun 19:34:15 19:38:23 33° 70° (ENE) 19:42:36 437.445
STARS 28 Jun 19:37:00 19:40:33 24° 292° (WNW) 19:44:05 437.465
XW-2F 28 Jun 19:37:28 19:39:53 16° 267° (W) 19:42:18 145.980 - 146.000
XW-2D 28 Jun 19:44:49 19:46:28 12° 268° (W) 19:48:08 145.860 - 145.880
ZACube-1 28 Jun 19:49:04 19:51:54 16° 65° (ENE) 19:54:44 437.345
SEEDS 28 Jun 19:58:28 20:02:39 74° 76° (ENE) 20:06:50 437.485
UWE-3 28 Jun 20:00:26 20:04:40 37° 71° (ENE) 20:08:58 435.000/436.395/437.385
O/OREOS (USA 219) 28 Jun 20:08:59 20:10:09 11° 97° (E) 20:11:17 437.305
PCSat 28 Jun 20:22:47 20:27:40 32° 53° (NE) 20:32:29 145.827
CUTE 1.7 + AOD 2 28 Jun 20:23:08 20:27:01 35° 263° (W) 20:30:55 437.475
BEESAT 3 28 Jun 20:23:24 20:27:17 57° 117° (ESE) 20:31:14 437.485
XW-2A 28 Jun 20:38:25 20:41:15 24° 264° (W) 20:44:06 145.665 - 145.685
AAUSAT CUBESAT 2 28 Jun 20:38:52 20:42:59 82° 258° (WSW) 20:47:07 437.432
AO-73 28 Jun 20:46:01 20:50:29 58° 75° (ENE) 20:54:59 145.935
AO-85 28 Jun 20:53:31 20:57:20 39° 306° (NW) 21:01:03 145.980
YUBILEINY 28 Jun 20:55:18 21:01:54 24° 81° (E) 21:08:31 435.215
STRAND 1 28 Jun 20:55:53 21:01:02 74° 286° (WNW) 21:06:09 437.568
NO-84 28 Jun 21:08:57 21:12:43 86° 138° (SE) 21:16:50 435.350 FM
Oscar 11 28 Jun 21:09:05 21:13:25 80° 78° (ENE) 21:17:46 .
HO-68 28 Jun 21:10:22 21:15:51 23° 267° (W) 21:21:24 435.675
CUBEBUG 2 28 Jun 21:11:17 21:14:59 24° 266° (W) 21:18:47 437.445
